• In Hungary
  • List of Countries
  • For 7 days
  • Water Temperature
  • Satellite Maps
  • Weather Map
  • News
  • Weather Widgets
  • user-avatar
    Login

    Hourly Weather Santa Fe

    Today, 15 December, Friday

    Time Temperature Precipitation Wind Pressure Humidity
    00:00 -4°C° 0 mm 1 mps 585 mmHg 61%
    01:00 -4°C° 0 mm 1 mps 585 mmHg 63%
    02:00 -4°C° 0 mm 1 mps 585 mmHg 65%
    03:00 -4°C° 0 mm 1 mps 585 mmHg 63%
    04:00 -4°C° 0 mm 1 mps 586 mmHg 61%
    05:00 -4°C° 0 mm 1 mps 586 mmHg 59%
    06:00 -5°C° 0 mm 2 mps 586 mmHg 53%
    07:00 -4°C° 0 mm 2 mps 586 mmHg 47%
    08:00 -3°C° 0 mm 2 mps 587 mmHg 41%
    09:00 0°C° 0 mm 3 mps 587 mmHg 35%
    10:00 +2°C° 0 mm 3 mps 588 mmHg 29%
    11:00 +5°C° 0 mm 3 mps 588 mmHg 23%
    12:00 +7°C° 0 mm 3 mps 588 mmHg 22%
    13:00 +6°C° 0 mm 4 mps 587 mmHg 21%
    14:00 +7°C° 0 mm 4 mps 587 mmHg 20%
    15:00 +5°C° 0 mm 3 mps 586 mmHg 25%
    16:00 +2°C° 0 mm 3 mps 584 mmHg 29%
    17:00 0°C° 0 mm 3 mps 583 mmHg 33%
    18:00 +1°C° 0 mm 2 mps 583 mmHg 35%
    19:00 -1°C° 0 mm 2 mps 583 mmHg 37%
    20:00 -2°C° 0 mm 2 mps 582 mmHg 39%
    21:00 -2°C° 0 mm 2 mps 582 mmHg 40%
    22:00 -2°C° 0 mm 2 mps 582 mmHg 40%
    23:00 -2°C° 0 mm 2 mps 582 mmHg 41%

    Tomorrow, 16 December, Saturday

    Time Temperature Precipitation Wind Pressure Humidity
    00:00 -2°C° 0 mm 2 mps 581 mmHg 41%
    01:00 -3°C° 0 mm 2 mps 581 mmHg 42%
    02:00 -3°C° 0 mm 2 mps 580 mmHg 43%
    03:00 -3°C° 0 mm 2 mps 580 mmHg 43%
    04:00 -3°C° 0 mm 2 mps 579 mmHg 44%
    05:00 -3°C° 0 mm 2 mps 578 mmHg 44%
    06:00 -3°C° 0 mm 2 mps 578 mmHg 42%
    07:00 -2°C° 0 mm 2 mps 578 mmHg 39%
    08:00 -1°C° 0 mm 2 mps 578 mmHg 37%
    09:00 +1°C° 0 mm 3 mps 579 mmHg 31%
    10:00 +4°C° 0 mm 3 mps 579 mmHg 25%
    11:00 +7°C° 0 mm 3 mps 580 mmHg 20%
    12:00 +7°C° 0 mm 4 mps 579 mmHg 19%
    13:00 +7°C° 0 mm 4 mps 579 mmHg 19%
    14:00 +7°C° 0 mm 4 mps 578 mmHg 18%
    15:00 +5°C° 0 mm 4 mps 577 mmHg 23%
    16:00 +2°C° 0 mm 3 mps 576 mmHg 28%
    17:00 +1°C° 0 mm 2 mps 575 mmHg 33%
    18:00 +1°C° 0 mm 2 mps 575 mmHg 34%
    19:00 -1°C° 0 mm 2 mps 576 mmHg 35%
    20:00 -1°C° 0 mm 2 mps 576 mmHg 37%
    21:00 -1°C° 0 mm 2 mps 577 mmHg 38%
    22:00 -2°C° 0 mm 2 mps 577 mmHg 39%
    23:00 -2°C° 0 mm 2 mps 577 mmHg 40%

    Day after tomorrow, 17 December, Sunday

    Time Temperature Precipitation Wind Pressure Humidity
    00:00 -1°C° 0 mm 2 mps 578 mmHg 41%
    01:00 -1°C° 0 mm 2 mps 578 mmHg 41%
    02:00 -1°C° 0 mm 2 mps 578 mmHg 42%
    03:00 -1°C° 0 mm 2 mps 578 mmHg 42%
    04:00 0°C° 0 mm 1 mps 578 mmHg 42%
    05:00 0°C° 0 mm 1 mps 578 mmHg 42%
    06:00 0°C° 0 mm 1 mps 579 mmHg 42%
    07:00 0°C° 0 mm 1 mps 579 mmHg 42%
    08:00 -1°C° 0 mm 0 mps 580 mmHg 43%
    09:00 +2°C° 0 mm 1 mps 580 mmHg 39%
    10:00 +2°C° 0 mm 2 mps 581 mmHg 36%
    11:00 +3°C° 0 mm 3 mps 581 mmHg 33%
    12:00 +2°C° 0 mm 3 mps 581 mmHg 37%
    13:00 +3°C° 0 mm 2 mps 580 mmHg 40%
    14:00 +3°C° 0 mm 2 mps 580 mmHg 44%
    15:00 +3°C° 0 mm 1 mps 579 mmHg 52%
    16:00 +2°C° 0 mm 1 mps 579 mmHg 60%
    17:00 -1°C° 0 mm 0 mps 578 mmHg 68%
    18:00 -1°C° 0 mm 0 mps 579 mmHg 70%
    19:00 0°C° 0 mm 1 mps 579 mmHg 72%
    20:00 -1°C° 0 mm 1 mps 579 mmHg 73%
    21:00 -1°C° 0 mm 1 mps 580 mmHg 72%
    22:00 -1°C° 0 mm 1 mps 580 mmHg 70%
    23:00 -1°C° 0 mm 1 mps 580 mmHg 69%

    18 December, Monday

    Time Temperature Precipitation Wind Pressure Humidity
    00:00 -1°C° 0 mm 1 mps 580 mmHg 66%
    01:00 -3°C° 0 mm 2 mps 581 mmHg 64%
    02:00 -3°C° 0 mm 2 mps 581 mmHg 61%
    03:00 -3°C° 0 mm 2 mps 581 mmHg 61%
    04:00 -3°C° 0 mm 2 mps 581 mmHg 61%
    05:00 -4°C° 0 mm 3 mps 581 mmHg 61%
    06:00 -4°C° 0 mm 3 mps 582 mmHg 59%
    07:00 -4°C° 0 mm 3 mps 582 mmHg 56%
    08:00 -4°C° 0 mm 3 mps 583 mmHg 54%
    09:00 -2°C° 0 mm 4 mps 584 mmHg 45%
    10:00 0°C° 0 mm 4 mps 584 mmHg 37%
    11:00 +3°C° 0 mm 5 mps 585 mmHg 28%
    12:00 +3°C° 0 mm 5 mps 585 mmHg 27%
    13:00 +5°C° 0 mm 5 mps 585 mmHg 26%
    14:00 +6°C° 0 mm 5 mps 585 mmHg 24%
    15:00 +4°C° 0 mm 4 mps 584 mmHg 29%
    16:00 +1°C° 0 mm 4 mps 583 mmHg 34%
    17:00 0°C° 0 mm 3 mps 583 mmHg 39%
    18:00 -1°C° 0 mm 3 mps 583 mmHg 41%
    19:00 -1°C° 0 mm 3 mps 584 mmHg 43%
    20:00 -2°C° 0 mm 2 mps 584 mmHg 45%
    21:00 -2°C° 0 mm 2 mps 584 mmHg 46%
    22:00 -2°C° 0 mm 2 mps 584 mmHg 47%
    23:00 -2°C° 0 mm 2 mps 585 mmHg 47%

    19 December, Tuesday

    Time Temperature Precipitation Wind Pressure Humidity
    00:00 -3°C° 0 mm 2 mps 585 mmHg 48%
    01:00 -3°C° 0 mm 2 mps 585 mmHg 49%
    02:00 -3°C° 0 mm 2 mps 585 mmHg 50%
    03:00 -1°C° 0 mm 1 mps 585 mmHg 50%
    04:00 -1°C° 0 mm 1 mps 585 mmHg 51%
    05:00 -1°C° 0 mm 1 mps 585 mmHg 51%
    06:00 -1°C° 0 mm 1 mps 585 mmHg 50%
    07:00 0°C° 0 mm 1 mps 586 mmHg 48%
    08:00 0°C° 0 mm 1 mps 587 mmHg 46%
    09:00 +3°C° 0 mm 1 mps 588 mmHg 40%
    10:00 +5°C° 0 mm 1 mps 589 mmHg 33%
    11:00 +8°C° 0 mm 1 mps 590 mmHg 27%
    12:00 +7°C° 0 mm 2 mps 590 mmHg 27%
    13:00 +8°C° 0 mm 2 mps 589 mmHg 27%
    14:00 +8°C° 0 mm 2 mps 589 mmHg 27%
    15:00 +6°C° 0 mm 2 mps 588 mmHg 33%
    16:00 +4°C° 0 mm 2 mps 587 mmHg 39%
    17:00 +2°C° 0 mm 2 mps 587 mmHg 45%
    18:00 +2°C° 0 mm 1 mps 587 mmHg 47%
    19:00 +1°C° 0 mm 1 mps 586 mmHg 50%
    20:00 +1°C° 0 mm 1 mps 586 mmHg 52%
    21:00 0°C° 0 mm 1 mps 586 mmHg 53%
    22:00 0°C° 0 mm 1 mps 586 mmHg 54%
    23:00 0°C° 0 mm 1 mps 586 mmHg 55%

    20 December, Wednesday

    Time Temperature Precipitation Wind Pressure Humidity
    00:00 0°C° 0 mm 1 mps 586 mmHg 56%
    01:00 -2°C° 0 mm 2 mps 585 mmHg 57%
    02:00 -2°C° 0 mm 2 mps 585 mmHg 57%
    03:00 -2°C° 0 mm 2 mps 585 mmHg 57%
    04:00 -2°C° 0 mm 2 mps 585 mmHg 57%
    05:00 -2°C° 0 mm 2 mps 584 mmHg 57%
    06:00 -2°C° 0 mm 2 mps 584 mmHg 55%
    07:00 -1°C° 0 mm 2 mps 585 mmHg 52%
    08:00 -1°C° 0 mm 3 mps 585 mmHg 50%
    09:00 +2°C° 0 mm 3 mps 585 mmHg 43%
    10:00 +4°C° 0 mm 4 mps 586 mmHg 37%
    11:00 +7°C° 0 mm 4 mps 586 mmHg 31%
    12:00 +7°C° 0 mm 4 mps 585 mmHg 30%
    13:00 +8°C° 0 mm 5 mps 585 mmHg 29%
    14:00 +8°C° 0 mm 5 mps 584 mmHg 29%
    15:00 +6°C° 0 mm 4 mps 583 mmHg 35%
    16:00 +4°C° 0 mm 4 mps 582 mmHg 41%
    17:00 +2°C° 0 mm 3 mps 581 mmHg 47%
    18:00 +2°C° 0 mm 3 mps 580 mmHg 49%
    19:00 +1°C° 0 mm 3 mps 580 mmHg 51%
    20:00 +1°C° 0 mm 3 mps 580 mmHg 53%
    21:00 0°C° 0 mm 3 mps 580 mmHg 54%
    22:00 0°C° 0 mm 3 mps 579 mmHg 54%
    23:00 -1°C° 0 mm 4 mps 579 mmHg 55%
    Show more